When you browse on this site, cookies collect data to enhance your experience and personalize the content and advertising you see.
Visit our Privacy Policy to learn more. By continuing to use the site, you agree to this use of cookies and data.
  • In Romania
  • List of Countries
  • For 7 days
  • Water Temperature
  • Satellite Maps
  • Weather Map
  • Weather Widgets
  • user-avatar
    Login

    Hourly Weather Barlinek

    Today, 20 May, Monday

    Time Temperature Precipitation Wind Pressure Humidity
    00:00 +16°C° 0.1 mm 2 mps 747 mmHg 94%
    01:00 +15°C° 0 mm 2 mps 747 mmHg 94%
    02:00 +15°C° 0 mm 2 mps 747 mmHg 95%
    03:00 +15°C° 0 mm 2 mps 747 mmHg 95%
    04:00 +14°C° 0 mm 2 mps 747 mmHg 96%
    05:00 +14°C° 0 mm 3 mps 747 mmHg 94%
    06:00 +17°C° 0 mm 3 mps 747 mmHg 91%
    07:00 +18°C° 0 mm 3 mps 747 mmHg 88%
    08:00 +19°C° 0 mm 3 mps 746 mmHg 82%
    09:00 +21°C° 0 mm 4 mps 746 mmHg 75%
    10:00 +23°C° 0 mm 4 mps 746 mmHg 68%
    11:00 +25°C° 0.2 mm 4 mps 746 mmHg 64%
    12:00 +25°C° 0.2 mm 5 mps 746 mmHg 61%
    13:00 +26°C° 0.2 mm 5 mps 745 mmHg 57%
    14:00 +26°C° 1.3 mm 4 mps 745 mmHg 62%
    15:00 +25°C° 1.3 mm 4 mps 745 mmHg 67%
    16:00 +25°C° 1.3 mm 4 mps 745 mmHg 72%
    17:00 +23°C° 0.6 mm 4 mps 745 mmHg 75%
    18:00 +21°C° 0.6 mm 4 mps 745 mmHg 79%
    19:00 +20°C° 0.6 mm 3 mps 744 mmHg 82%
    20:00 +19°C° 0 mm 3 mps 745 mmHg 85%
    21:00 +17°C° 0 mm 3 mps 745 mmHg 87%
    22:00 +16°C° 0 mm 2 mps 745 mmHg 90%
    23:00 +16°C° 0 mm 2 mps 745 mmHg 90%

    Tomorrow, 21 May, Tuesday

    Time Temperature Precipitation Wind Pressure Humidity
    00:00 +15°C° 0 mm 2 mps 745 mmHg 91%
    01:00 +15°C° 0 mm 2 mps 746 mmHg 91%
    02:00 +14°C° 0 mm 2 mps 746 mmHg 91%
    03:00 +14°C° 0 mm 2 mps 746 mmHg 92%
    04:00 +14°C° 0 mm 1 mps 746 mmHg 92%
    05:00 +15°C° 0 mm 1 mps 746 mmHg 88%
    06:00 +18°C° 0 mm 1 mps 746 mmHg 83%
    07:00 +19°C° 0 mm 1 mps 746 mmHg 79%
    08:00 +20°C° 0 mm 1 mps 746 mmHg 73%
    09:00 +22°C° 0 mm 1 mps 746 mmHg 66%
    10:00 +23°C° 0 mm 1 mps 747 mmHg 59%
    11:00 +24°C° 0 mm 1 mps 746 mmHg 57%
    12:00 +24°C° 0 mm 1 mps 746 mmHg 56%
    13:00 +25°C° 0 mm 1 mps 746 mmHg 54%
    14:00 +25°C° 0.1 mm 2 mps 746 mmHg 56%
    15:00 +25°C° 0.1 mm 2 mps 746 mmHg 58%
    16:00 +25°C° 0.1 mm 3 mps 746 mmHg 60%
    17:00 +22°C° 0.3 mm 3 mps 746 mmHg 69%
    18:00 +21°C° 0.3 mm 2 mps 746 mmHg 78%
    19:00 +19°C° 0.3 mm 2 mps 746 mmHg 87%
    20:00 +18°C° 0 mm 2 mps 747 mmHg 89%
    21:00 +18°C° 0 mm 2 mps 747 mmHg 90%
    22:00 +17°C° 0 mm 2 mps 747 mmHg 91%
    23:00 +16°C° 0 mm 2 mps 747 mmHg 92%

    Day after tomorrow, 22 May, Wednesday

    Time Temperature Precipitation Wind Pressure Humidity
    00:00 +16°C° 0 mm 3 mps 747 mmHg 93%
    01:00 +14°C° 0 mm 3 mps 747 mmHg 95%
    02:00 +14°C° 0 mm 3 mps 747 mmHg 95%
    03:00 +14°C° 0 mm 4 mps 747 mmHg 96%
    04:00 +14°C° 0 mm 4 mps 748 mmHg 96%
    05:00 +14°C° 0 mm 4 mps 748 mmHg 95%
    06:00 +15°C° 0 mm 4 mps 748 mmHg 94%
    07:00 +15°C° 0 mm 4 mps 748 mmHg 93%
    08:00 +15°C° 0.1 mm 5 mps 749 mmHg 92%
    09:00 +15°C° 0.1 mm 5 mps 749 mmHg 92%
    10:00 +15°C° 0.1 mm 5 mps 749 mmHg 91%
    11:00 +15°C° 0.1 mm 6 mps 749 mmHg 91%
    12:00 +14°C° 0.1 mm 6 mps 750 mmHg 91%
    13:00 +14°C° 0.1 mm 7 mps 750 mmHg 91%
    14:00 +12°C° 0.1 mm 7 mps 750 mmHg 91%
    15:00 +12°C° 0.1 mm 7 mps 750 mmHg 91%
    16:00 +12°C° 0.1 mm 7 mps 751 mmHg 91%
    17:00 +11°C° 0.2 mm 7 mps 751 mmHg 91%
    18:00 +11°C° 0.2 mm 7 mps 752 mmHg 91%
    19:00 +11°C° 0.2 mm 7 mps 752 mmHg 91%
    20:00 +11°C° 0.2 mm 7 mps 752 mmHg 91%
    21:00 +11°C° 0.2 mm 7 mps 753 mmHg 91%
    22:00 +11°C° 0.2 mm 6 mps 754 mmHg 91%
    23:00 +10°C° 0.1 mm 6 mps 754 mmHg 90%

    23 May, Thursday

    Time Temperature Precipitation Wind Pressure Humidity
    00:00 +9°C° 0.1 mm 6 mps 754 mmHg 89%
    01:00 +9°C° 0.1 mm 6 mps 755 mmHg 89%
    02:00 +8°C° 0 mm 5 mps 755 mmHg 90%
    03:00 +7°C° 0 mm 5 mps 755 mmHg 91%
    04:00 +6°C° 0 mm 5 mps 755 mmHg 93%
    05:00 +7°C° 0 mm 5 mps 756 mmHg 89%
    06:00 +8°C° 0 mm 5 mps 756 mmHg 85%
    07:00 +9°C° 0 mm 5 mps 756 mmHg 81%
    08:00 +10°C° 0 mm 5 mps 757 mmHg 74%
    09:00 +12°C° 0 mm 5 mps 757 mmHg 66%
    10:00 +14°C° 0 mm 5 mps 757 mmHg 59%
    11:00 +15°C° 0 mm 5 mps 757 mmHg 57%
    12:00 +16°C° 0 mm 5 mps 757 mmHg 55%
    13:00 +16°C° 0 mm 5 mps 757 mmHg 53%
    14:00 +16°C° 0 mm 5 mps 756 mmHg 53%
    15:00 +18°C° 0 mm 4 mps 756 mmHg 54%
    16:00 +18°C° 0 mm 4 mps 756 mmHg 54%
    17:00 +17°C° 0 mm 4 mps 756 mmHg 60%
    18:00 +14°C° 0 mm 3 mps 756 mmHg 66%
    19:00 +14°C° 0 mm 2 mps 756 mmHg 72%
    20:00 +13°C° 0 mm 2 mps 756 mmHg 75%
    21:00 +11°C° 0 mm 1 mps 756 mmHg 78%
    22:00 +9°C° 0 mm 1 mps 756 mmHg 80%
    23:00 +9°C° 0 mm 1 mps 756 mmHg 78%

    24 May, Friday

    Time Temperature Precipitation Wind Pressure Humidity
    00:00 +9°C° 0 mm 1 mps 756 mmHg 75%
    01:00 +9°C° 0 mm 1 mps 756 mmHg 73%
    02:00 +9°C° 0 mm 1 mps 755 mmHg 74%
    03:00 +9°C° 0 mm 1 mps 755 mmHg 74%
    04:00 +9°C° 0 mm 1 mps 755 mmHg 75%
    05:00 +11°C° 0 mm 1 mps 754 mmHg 73%
    06:00 +13°C° 0 mm 2 mps 754 mmHg 71%
    07:00 +14°C° 0 mm 2 mps 754 mmHg 68%
    08:00 +16°C° 0 mm 2 mps 753 mmHg 64%
    09:00 +18°C° 0 mm 2 mps 753 mmHg 60%
    10:00 +19°C° 0 mm 3 mps 753 mmHg 56%
    11:00 +20°C° 0 mm 3 mps 752 mmHg 54%
    12:00 +21°C° 0 mm 3 mps 751 mmHg 53%
    13:00 +22°C° 0 mm 3 mps 751 mmHg 51%
    14:00 +21°C° 0.1 mm 3 mps 750 mmHg 53%
    15:00 +21°C° 0.1 mm 3 mps 750 mmHg 56%
    16:00 +21°C° 0.1 mm 3 mps 749 mmHg 58%
    17:00 +20°C° 0.1 mm 3 mps 749 mmHg 62%
    18:00 +19°C° 0.1 mm 2 mps 748 mmHg 65%
    19:00 +18°C° 0.1 mm 2 mps 748 mmHg 68%
    20:00 +17°C° 0 mm 3 mps 748 mmHg 71%
    21:00 +16°C° 0 mm 3 mps 748 mmHg 73%
    22:00 +14°C° 0 mm 4 mps 748 mmHg 76%
    23:00 +14°C° 0 mm 4 mps 748 mmHg 78%

    25 May, Saturday

    Time Temperature Precipitation Wind Pressure Humidity
    00:00 +13°C° 0 mm 4 mps 747 mmHg 80%
    01:00 +12°C° 0 mm 4 mps 747 mmHg 82%
    02:00 +12°C° 0.4 mm 3 mps 747 mmHg 86%
    03:00 +12°C° 0.4 mm 3 mps 747 mmHg 89%
    04:00 +12°C° 0.4 mm 3 mps 747 mmHg 92%
    05:00 +12°C° 1.6 mm 3 mps 748 mmHg 93%
    06:00 +12°C° 1.6 mm 3 mps 748 mmHg 94%
    07:00 +12°C° 1.6 mm 3 mps 748 mmHg 95%
    08:00 +13°C° 0.4 mm 3 mps 748 mmHg 91%
    09:00 +14°C° 0.4 mm 3 mps 748 mmHg 87%
    10:00 +15°C° 0.4 mm 2 mps 749 mmHg 83%
    11:00 +16°C° 0.5 mm 3 mps 749 mmHg 81%
    12:00 +16°C° 0.5 mm 3 mps 749 mmHg 79%
    13:00 +17°C° 0.5 mm 3 mps 749 mmHg 77%
    14:00 +17°C° 0.5 mm 3 mps 748 mmHg 76%
    15:00 +18°C° 0.5 mm 3 mps 748 mmHg 75%
    16:00 +18°C° 0.5 mm 3 mps 748 mmHg 73%
    17:00 +17°C° 0.6 mm 2 mps 748 mmHg 77%
    18:00 +16°C° 0.6 mm 2 mps 748 mmHg 81%
    19:00 +16°C° 0.6 mm 2 mps 748 mmHg 85%
    20:00 +14°C° 0.1 mm 3 mps 748 mmHg 88%
    21:00 +13°C° 0.1 mm 3 mps 749 mmHg 91%
    22:00 +12°C° 0.1 mm 4 mps 749 mmHg 94%
    23:00 +11°C° 0 mm 4 mps 749 mmHg 95%
    Show more